Regional Weather Roundup
Issued by NWS

Home | Current Version | Previous Version | Graphics & Text | Print | Product List | Glossary On
Versions: 1 2 3 4 5 6 7 8 9 10 11 12 13 14 15 16 17 18 19 20 21 22 23 24 25 26 27 28 29 30 31 32 33 34 35 36 37 38 39 40 41 42 43 44 45 46 47 48 49 50
000
ASUS43 KLMK 260902
RWRKY
KENTUCKY REGIONAL WEATHER ROUNDUP
NATIONAL WEATHER SERVICE LOUISVILLE KY
500 AM EDT FRI AUG 26 2016

NOTE "FAIR" INDICATES FEW OR NO CLOUDS BELOW 12,000 FEET
WITH NO SIGNIFICANT WEATHER AND/OR OBSTRUCTIONS TO VISIBILITY.

KYZ001>023-026-027-061>063-070>075-261000-
WESTERN AND SOUTH CENTRAL KENTUCKY

CITY           SKY/WX    TMP DP  RH WIND       PRES   REMARKS
PADUCAH        FAIR      74  72  93 CALM      30.06F FOG
HENDERSON      FAIR      72  68  88 CALM      30.06F
OWENSBORO      FAIR      75  74  97 CALM      30.09S
HOPKINSVILLE   FAIR      75  75  99 CALM      30.09S
BOWLING GREEN  FAIR      74  73  97 CALM      30.10F FOG
GLASGOW        FAIR      71  71 100 CALM      30.12S FOG
$$

KYZ024-025-028>034-038-045-046-053-261000-
NORTH CENTRAL KENTUCKY

CITY           SKY/WX    TMP DP  RH WIND       PRES   REMARKS
LOUISVILLE/SDF FAIR      77  71  82 S3        30.09S
LOUISVILLE/LOU FAIR      75  70  84 CALM      30.10S
FORT KNOX      FAIR      70  69  99 CALM      30.10S
$$

KYZ035>037-039>044-047>052-055>060-089>105-261000-
NORTHEAST KENTUCKY

CITY           SKY/WX    TMP DP  RH WIND       PRES   REMARKS
LEXINGTON      FAIR      70  68  93 CALM      30.13S
COVINGTON      FAIR      73  71  93 W5        30.11S
FRANKFORT      FAIR      70  67  90 CALM      30.11S
$$

KYZ054-064>069-076>088-106>120-261000-
SOUTHEAST KENTUCKY

CITY           SKY/WX    TMP DP  RH WIND       PRES   REMARKS
JACKSON        FAIR      73  71  93 CALM      30.16S
LONDON         FOG       71  69  93 CALM      30.15S VSB 1/2
SOMERSET       CLOUDY    70  70 100 CALM      30.15S
MIDDLESBORO    FOG       70  70 100 CALM      30.17S VSB 1/2
MONTICELLO     FAIR     N/A N/A N/A CALM      30.16R HAZE
$$





USA.gov is the U.S. government's official web portal to all federal, state and local government web resources and services.